period_start,C,m1,H,J0,J1,J2,J3,J4,J5,JA,JB,JC,JD,JJ,JK,JN,#
2016-08-10 00:00:33,-0.01,0.11,0.00,24.57,28.80,31.38,14.36,46.79,1010.36,2033.49,3410.91,3075.00,3483.10,599.99,589.29,12.91,0000 0000 0000 0000 000000
2016-08-10 00:05:34,-0.02,0.11,0.00,24.57,28.80,31.38,14.33,46.83,1010.43,2033.42,3410.74,3075.00,3483.08,599.83,589.07,12.96,0000 0000 0000 0000 000000
2016-08-10 00:10:35,-0.00,0.11,0.00,24.57,28.80,31.39,14.41,46.90,1010.57,2033.26,3410.36,3075.00,3483.01,600.48,589.73,13.01,0000 0000 0000 0000 000000
2016-08-10 00:15:36,0.01,0.11,0.00,24.58,28.80,31.39,14.34,46.67,1010.66,2033.24,3410.06,3074.99,3483.00,600.07,589.51,13.06,0000 0000 0000 0000 000000
2016-08-10 00:20:38,0.01,0.11,0.00,24.57,28.80,31.39,14.35,46.74,1010.66,2033.33,3410.02,3074.99,3483.00,599.93,589.27,13.11,0000 0000 0000 0000 000000
2016-08-10 00:25:39,0.01,0.11,0.00,24.58,28.80,31.39,14.34,46.76,1010.71,2033.38,3410.01,3074.98,3483.00,600.20,589.60,13.17,0000 0000 0000 0000 000000
2016-08-10 00:30:41,-0.03,0.11,0.00,24.58,28.80,31.38,14.43,46.77,1010.73,2033.20,3410.00,3074.98,3482.99,600.08,589.59,13.22,0000 0000 0000 0000 000000
2016-08-10 00:35:42,0.00,0.11,0.00,24.58,28.80,31.39,14.29,46.63,1010.76,2033.21,3410.00,3074.97,3482.98,599.96,589.47,13.27,0000 0000 0000 0000 000000
2016-08-10 00:40:43,0.02,0.11,0.00,24.60,28.80,31.39,14.28,46.67,1010.76,2033.33,3409.99,3074.96,3482.97,599.66,589.07,13.32,0000 0000 0000 0000 000000
2016-08-10 00:45:45,0.00,0.11,0.00,24.60,28.80,31.39,14.46,46.85,1010.76,2033.35,3409.92,3074.91,3482.95,600.54,589.91,13.37,0000 0000 0000 0000 000000
2016-08-10 00:50:46,0.00,0.12,0.00,24.60,28.80,31.38,14.37,46.75,1010.76,2033.40,3409.81,3074.88,3482.92,600.03,589.51,13.42,0000 0000 0000 0000 000000
2016-08-10 00:55:47,-0.00,0.12,0.00,24.61,28.80,31.38,14.26,46.70,1010.76,2033.30,3409.71,3074.75,3482.80,599.64,589.14,13.47,0000 0000 0000 0000 000000
2016-08-10 01:00:48,0.03,0.12,0.00,24.62,28.80,31.39,14.37,46.66,1010.76,2033.46,3409.59,3074.79,3482.72,600.21,589.56,13.52,0000 0000 0000 0000 000000
2016-08-10 01:05:49,0.00,0.12,0.00,24.62,28.80,31.39,14.29,46.72,1010.76,2033.37,3409.27,3074.57,3482.48,599.61,588.99,13.57,0000 0000 0000 0000 000000
2016-08-10 01:10:50,-0.00,0.12,0.00,24.62,28.80,31.39,14.35,46.67,1010.76,2033.22,3409.04,3074.23,3482.11,600.09,589.42,13.62,0000 0000 0000 0000 000000
2016-08-10 01:15:52,0.00,0.12,0.00,24.64,28.80,31.39,14.40,46.85,1010.76,2033.20,3409.00,3074.08,3482.03,599.89,589.25,13.67,0000 0000 0000 0000 000000
2016-08-10 01:20:52,-0.00,0.12,0.00,24.65,28.81,31.40,14.36,46.91,1010.76,2033.20,3408.99,3074.01,3482.01,600.08,589.43,13.72,0000 0000 0000 0000 000000
2016-08-10 01:25:54,-0.01,0.12,0.00,24.65,28.82,31.39,14.30,46.73,1010.76,2033.09,3408.94,3074.00,3482.00,599.78,588.97,13.77,0000 0000 0000 0000 000000
2016-08-10 01:30:55,0.00,0.12,0.00,24.66,28.82,31.40,14.38,46.85,1010.76,2033.06,3408.88,3074.00,3481.99,600.11,589.35,13.82,0000 0000 0000 0000 000000
2016-08-10 01:35:56,0.01,0.12,0.00,24.67,28.82,31.40,14.41,46.90,1010.76,2033.05,3408.54,3074.00,3481.99,600.45,589.63,13.87,0000 0000 0000 0000 000000
2016-08-10 01:40:57,0.00,0.12,0.00,24.67,28.82,31.40,14.41,46.73,1010.76,2033.06,3408.34,3074.00,3481.96,600.21,589.61,13.92,0000 0000 0000 0000 000000
2016-08-10 01:45:59,0.00,0.12,0.00,24.70,28.82,31.41,14.36,46.77,1010.76,2033.05,3408.05,3073.99,3481.92,599.87,589.10,13.97,0000 0000 0000 0000 000000
2016-08-10 01:51:00,0.00,0.12,0.00,24.71,28.84,31.41,14.31,46.68,1010.76,2033.04,3408.02,3073.99,3481.79,599.88,589.09,14.02,0000 0000 0000 0000 000000
2016-08-10 01:56:01,0.00,0.12,0.00,24.73,28.85,31.43,14.25,46.70,1010.76,2033.01,3408.01,3073.96,3481.34,599.60,588.56,14.07,0000 0000 0000 0000 000000
2016-08-10 02:01:02,0.00,0.12,0.00,24.74,28.85,31.42,14.29,46.65,1010.75,2033.00,3408.00,3073.94,3481.16,600.31,589.41,14.12,0000 0000 0000 0000 000000
2016-08-10 02:06:04,0.00,0.12,0.00,24.75,28.85,31.42,14.35,46.67,1010.73,2033.01,3408.00,3073.87,3481.06,600.13,589.21,14.17,0000 0000 0000 0000 000000
2016-08-10 02:11:05,0.00,0.12,0.00,24.76,28.86,31.43,14.33,46.72,1010.76,2033.01,3407.99,3073.66,3481.00,600.04,589.16,14.22,0000 0000 0000 0000 000000
2016-08-10 02:16:06,0.02,0.12,0.00,24.78,28.87,31.44,14.28,46.71,1010.76,2033.00,3407.91,3073.29,3481.00,600.01,589.08,14.27,0000 0000 0000 0000 000000
2016-08-10 02:21:07,0.00,0.12,0.00,24.79,28.87,31.45,14.38,46.87,1010.76,2033.00,3407.85,3073.14,3481.00,600.25,589.22,14.32,0000 0000 0000 0000 000000
2016-08-10 02:26:08,0.01,0.12,0.00,24.79,28.87,31.43,14.30,46.60,1010.76,2033.00,3407.48,3073.04,3481.00,600.02,589.20,14.37,0000 0000 0000 0000 000000
2016-08-10 02:31:10,0.00,0.12,0.00,24.82,28.87,31.44,14.33,46.82,1010.76,2033.00,3407.38,3073.02,3480.97,599.82,588.74,14.42,0000 0000 0000 0000 000000
2016-08-10 02:36:11,0.00,0.12,0.00,24.83,28.89,31.45,14.27,46.69,1010.76,2033.00,3407.04,3073.00,3480.85,599.44,588.38,14.47,0000 0000 0000 0000 000000
2016-08-10 02:41:13,0.00,0.12,0.00,24.85,28.90,31.46,14.31,46.80,1010.75,2033.00,3407.00,3073.00,3480.36,599.96,588.93,14.52,0000 0000 0000 0000 000000
2016-08-10 02:46:14,0.00,0.12,0.00,24.87,28.90,31.46,14.29,46.93,1010.76,2032.99,3407.00,3072.99,3480.15,600.02,588.91,14.57,0000 0000 0000 0000 000000
2016-08-10 02:51:15,0.00,0.12,0.00,24.87,28.90,31.48,14.29,46.74,1010.75,2032.99,3406.96,3072.98,3480.01,599.58,588.47,14.62,0000 0000 0000 0000 000000
2016-08-10 02:56:17,0.00,0.12,0.00,24.87,28.91,31.48,14.31,46.87,1010.76,2032.98,3406.98,3072.97,3480.01,600.13,589.04,14.67,0000 0000 0000 0000 000000
2016-08-10 03:01:18,0.00,0.12,0.00,24.89,28.92,31.48,14.31,46.95,1010.69,2032.97,3406.98,3072.97,3480.00,599.63,588.45,14.72,0000 0000 0000 0000 000000
2016-08-10 03:06:19,0.00,0.12,0.00,24.90,28.92,31.48,14.25,46.80,1010.74,2032.94,3406.91,3072.94,3480.00,600.43,589.27,14.77,0000 0000 0000 0000 000000
2016-08-10 03:11:20,0.02,0.12,0.00,24.92,28.92,31.50,14.35,46.88,1010.75,2032.93,3406.19,3072.61,3480.00,600.01,588.83,14.82,0000 0000 0000 0000 000000
2016-08-10 03:16:22,0.01,0.12,0.00,24.93,28.94,31.50,14.33,46.68,1010.76,2032.92,3406.01,3072.33,3479.97,600.18,588.94,14.87,0000 0000 0000 0000 000000
2016-08-10 03:21:23,-0.01,0.12,0.00,24.95,28.95,31.50,14.31,46.98,1010.76,2032.76,3406.00,3072.06,3479.83,600.08,589.03,14.92,0000 0000 0000 0000 000000
2016-08-10 03:26:24,0.00,0.12,0.00,24.95,28.95,31.52,14.30,46.91,1010.76,2032.69,3406.00,3072.05,3479.71,599.78,588.48,14.97,0000 0000 0000 0000 000000
2016-08-10 03:31:25,-0.00,0.12,0.00,24.97,28.95,31.52,14.30,46.88,1010.76,2032.68,3405.98,3072.01,3479.26,600.04,588.72,15.02,0000 0000 0000 0000 000000
2016-08-10 03:36:27,0.01,0.12,0.00,24.97,28.95,31.52,14.36,46.87,1010.76,2032.64,3405.77,3072.00,3479.09,600.12,588.80,15.07,0000 0000 0000 0000 000000
2016-08-10 03:41:28,-0.00,0.12,0.00,24.97,28.95,31.53,14.30,46.83,1010.76,2032.51,3405.58,3072.00,3479.03,599.88,588.68,15.12,0000 0000 0000 0000 000000
2016-08-10 03:46:30,-0.03,0.12,0.00,25.00,28.97,31.53,14.25,46.70,1010.76,2032.13,3405.25,3072.00,3479.00,599.80,588.44,15.17,0000 0000 0000 0000 000000
2016-08-10 03:51:31,0.01,0.12,0.00,25.02,28.97,31.53,14.33,47.02,1010.76,2032.18,3405.01,3071.99,3479.00,599.61,588.21,15.22,0000 0000 0000 0000 000000
2016-08-10 03:56:32,0.00,0.12,0.00,25.02,28.97,31.54,14.36,46.89,1010.76,2032.10,3404.99,3071.97,3478.99,600.42,589.04,15.27,0000 0000 0000 0000 000000
2016-08-10 04:01:33,0.01,0.12,0.00,25.03,28.97,31.54,14.41,46.97,1010.76,2032.19,3404.87,3071.93,3478.94,600.10,588.54,15.32,0000 0000 0000 0000 000000
2016-08-10 04:06:34,0.00,0.12,0.00,25.05,28.97,31.55,14.40,46.98,1010.76,2032.21,3404.82,3071.88,3478.82,600.24,588.73,15.37,0000 0000 0000 0000 000000
2016-08-10 04:11:35,0.02,0.12,0.00,25.05,28.98,31.56,14.29,46.67,1010.76,2032.14,3404.28,3071.56,3478.40,600.19,588.77,15.42,0000 0000 0000 0000 000000
2016-08-10 04:16:36,-0.01,0.12,0.00,25.07,28.99,31.57,14.25,46.71,1010.76,2032.17,3404.54,3071.71,3478.49,600.16,588.63,15.47,0000 0000 0000 0000 000000
2016-08-10 04:21:38,0.01,0.12,0.00,25.08,29.00,31.57,14.31,46.70,1010.76,2032.09,3404.42,3071.47,3478.22,599.95,588.46,15.52,0000 0000 0000 0000 000000
2016-08-10 04:26:39,0.00,0.12,0.00,25.10,29.00,31.57,14.34,46.73,1010.76,2032.07,3404.35,3071.25,3478.13,599.83,588.28,15.58,0000 0000 0000 0000 000000
2016-08-10 04:31:40,0.00,0.12,0.00,25.10,29.00,31.57,14.24,46.63,1010.76,2032.01,3404.12,3071.11,3478.02,599.67,588.14,15.63,0000 0000 0000 0000 000000
2016-08-10 04:36:42,-0.00,0.12,0.00,25.12,29.00,31.57,14.27,46.80,1010.77,2032.01,3404.18,3071.08,3478.01,599.93,588.20,15.68,0000 0000 0000 0000 000000
2016-08-10 04:41:43,0.00,0.12,0.00,25.12,29.00,31.58,14.30,46.87,1010.78,2032.01,3404.04,3071.03,3478.01,599.99,588.46,15.73,0000 0000 0000 0000 000000
2016-08-10 04:46:44,0.00,0.12,0.00,25.12,29.01,31.59,14.27,46.76,1010.78,2032.00,3404.00,3071.00,3478.00,599.95,588.34,15.78,0000 0000 0000 0000 000000
2016-08-10 04:51:46,0.00,0.12,0.00,25.14,29.02,31.60,14.33,46.88,1010.77,2032.00,3404.00,3071.02,3478.00,600.04,588.40,15.83,0000 0000 0000 0000 000000
2016-08-10 04:56:47,0.00,0.12,0.00,25.14,29.02,31.62,14.28,46.99,1010.78,2032.00,3404.00,3071.01,3478.00,600.38,588.74,15.88,0000 0000 0000 0000 000000
2016-08-10 05:01:48,0.00,0.12,0.00,25.16,29.02,31.61,14.34,46.99,1010.81,2032.00,3404.00,3071.00,3477.99,600.43,588.70,15.93,0000 0000 0000 0000 000000
2016-08-10 05:06:49,0.00,0.12,0.00,25.17,29.02,31.61,14.29,46.85,1010.81,2032.00,3403.97,3071.00,3477.98,599.80,588.12,15.98,0000 0000 0000 0000 000000
2016-08-10 05:11:51,0.00,0.12,0.00,25.17,29.02,31.62,14.33,46.99,1010.80,2032.00,3403.98,3071.00,3477.98,600.25,588.51,16.03,0000 0000 0000 0000 000000
2016-08-10 05:16:52,0.00,0.12,0.00,25.19,29.02,31.63,14.28,46.80,1010.81,2032.00,3403.93,3071.00,3477.96,600.13,588.32,16.08,0000 0000 0000 0000 000000
2016-08-10 05:21:53,0.00,0.12,0.00,25.20,29.03,31.64,14.25,46.84,1010.90,2032.00,3403.95,3071.00,3477.97,599.88,588.07,16.13,0000 0000 0000 0000 000000
2016-08-10 05:26:54,0.01,0.12,0.00,25.20,29.04,31.64,14.30,47.10,1011.19,2032.00,3403.73,3071.00,3477.86,600.33,588.79,16.18,0000 0000 0000 0000 000000
2016-08-10 05:31:56,-0.00,0.12,0.00,25.22,29.05,31.63,14.21,46.77,1011.18,2032.00,3403.69,3071.00,3477.72,599.66,588.11,16.23,0000 0000 0000 0000 000000
2016-08-10 05:36:57,0.00,0.12,0.00,25.22,29.05,31.64,14.32,47.11,1011.24,2032.00,3403.63,3071.00,3477.70,600.52,588.93,16.28,0000 0000 0000 0000 000000
2016-08-10 05:41:58,0.00,0.12,0.00,25.24,29.05,31.63,14.31,46.98,1011.24,2032.00,3403.55,3071.00,3477.43,599.89,588.38,16.33,0000 0000 0000 0000 000000
2016-08-10 05:46:59,0.01,0.12,0.00,25.25,29.05,31.65,14.25,46.87,1011.25,2032.00,3403.24,3070.99,3477.20,600.01,588.52,16.38,0000 0000 0000 0000 000000
2016-08-10 05:52:00,0.00,0.12,0.00,25.26,29.05,31.65,14.28,46.83,1011.26,2032.00,3403.01,3070.98,3477.09,599.94,588.45,16.43,0000 0000 0000 0000 000000
2016-08-10 05:57:01,0.00,0.12,0.00,25.27,29.05,31.67,14.29,46.77,1011.33,2032.00,3403.00,3070.98,3477.07,600.50,588.88,16.48,0000 0000 0000 0000 000000
2016-08-10 06:02:03,0.00,0.12,0.00,25.27,29.05,31.66,14.33,46.63,1011.36,2032.00,3403.01,3070.98,3477.06,599.88,588.29,16.53,0000 0000 0000 0000 000000
2016-08-10 06:07:04,0.00,0.12,0.00,25.27,29.06,31.66,14.20,46.64,1011.38,2032.00,3403.00,3070.98,3477.04,599.72,588.18,16.58,0000 0000 0000 0000 000000
2016-08-10 06:12:05,0.00,0.12,0.00,25.27,29.07,31.67,14.24,46.76,1011.47,2032.00,3403.01,3070.98,3477.03,599.63,588.14,16.63,0000 0000 0000 0000 000000
2016-08-10 06:17:06,0.00,0.12,0.00,25.29,29.07,31.67,14.22,46.74,1011.66,2032.00,3403.01,3070.96,3477.02,599.58,588.12,16.68,0000 0000 0000 0000 000000
2016-08-10 06:22:07,0.00,0.12,0.00,25.30,29.07,31.68,14.41,47.07,1011.68,2032.00,3403.00,3070.95,3477.01,599.97,588.53,16.73,0000 0000 0000 0000 000000
2016-08-10 06:27:09,0.00,0.12,0.00,25.32,29.07,31.68,14.28,46.79,1011.67,2032.00,3403.00,3070.94,3477.01,600.46,589.10,16.78,0000 0000 0000 0000 000000
2016-08-10 06:32:10,0.00,0.12,0.00,25.32,29.07,31.67,14.36,46.84,1011.69,2032.00,3402.97,3070.93,3477.00,600.17,588.63,16.83,0000 0000 0000 0000 000000
2016-08-10 06:37:11,0.02,0.12,0.00,25.32,29.07,31.68,14.34,46.86,1011.73,2032.01,3402.32,3070.70,3477.00,600.39,588.83,16.88,0000 0000 0000 0000 000000
2016-08-10 06:42:12,-0.01,0.13,0.00,25.32,29.07,31.68,14.32,46.81,1011.74,2032.00,3402.45,3070.50,3476.99,599.79,588.23,16.93,0000 0000 0000 0000 000000
2016-08-10 06:47:14,0.02,0.13,0.00,25.33,29.07,31.68,14.26,46.82,1011.75,2032.00,3402.10,3070.19,3476.98,599.74,588.27,16.98,0000 0000 0000 0000 000000
2016-08-10 06:52:15,-0.01,0.13,0.00,25.34,29.07,31.69,14.27,46.66,1011.79,2032.00,3402.19,3070.24,3476.99,600.50,588.96,17.03,0000 0000 0000 0000 000000
2016-08-10 06:57:16,-0.00,0.13,0.00,25.33,29.07,31.70,14.39,46.97,1011.99,2032.01,3402.18,3070.33,3476.98,600.27,588.95,17.08,0000 0000 0000 0000 000000
2016-08-10 07:02:17,-0.00,0.13,0.00,25.34,29.07,31.70,14.23,47.08,1012.16,2032.00,3402.32,3070.23,3476.98,599.70,588.54,17.13,0000 0000 0000 0000 000000
2016-08-10 07:07:19,0.00,0.13,0.00,25.33,29.07,31.69,14.38,47.09,1012.22,2032.00,3402.70,3070.16,3476.98,600.03,588.83,17.18,0000 0000 0000 0000 000000
2016-08-10 07:12:20,-0.00,0.13,0.00,25.33,29.07,31.71,14.33,46.85,1012.22,2032.00,3402.92,3070.15,3476.98,600.17,588.99,17.23,0000 0000 0000 0000 000000
2016-08-10 07:17:21,-0.00,0.12,0.00,25.32,29.07,31.71,14.32,47.04,1012.22,2032.00,3402.98,3070.26,3476.98,600.29,589.17,17.28,0000 0000 0000 0000 000000
2016-08-10 07:22:22,0.00,0.12,0.00,25.32,29.07,31.70,14.38,46.98,1012.23,2032.00,3402.94,3070.34,3476.99,600.45,589.17,17.33,0000 0000 0000 0000 000000
2016-08-10 07:27:23,0.00,0.13,0.00,25.32,29.07,31.71,14.25,46.88,1012.25,2032.00,3402.87,3070.23,3476.98,599.90,588.89,17.38,0000 0000 0000 0000 000000
2016-08-10 07:32:24,0.00,0.12,0.00,25.35,29.07,31.70,14.28,46.80,1012.49,2032.00,3402.86,3070.29,3476.98,600.16,589.05,17.43,0000 0000 0000 0000 000000
2016-08-10 07:37:26,0.00,0.13,0.00,25.32,29.05,31.72,14.33,47.03,1012.46,2032.00,3402.70,3070.18,3476.97,599.93,588.92,17.48,0000 0000 0000 0000 000000
2016-08-10 07:42:27,-0.01,0.13,0.00,25.32,29.05,31.70,14.33,46.92,1012.43,2031.99,3402.67,3070.31,3476.98,599.88,588.75,17.53,0000 0000 0000 0000 000000
2016-08-10 07:47:29,0.00,0.13,0.00,25.32,29.05,31.71,14.30,46.78,1012.60,2031.99,3402.41,3070.25,3476.97,599.90,589.14,17.58,0000 0000 0000 0000 000000
2016-08-10 07:52:30,0.00,0.13,0.00,25.31,29.05,31.70,14.30,46.74,1012.69,2031.99,3402.30,3070.17,3476.94,600.12,589.25,17.63,0000 0000 0000 0000 000000
2016-08-10 07:57:32,0.00,0.13,0.00,25.30,29.05,31.70,14.24,46.73,1012.71,2031.99,3402.05,3070.09,3476.92,599.94,589.10,17.68,0000 0000 0000 0000 000000
2016-08-10 08:02:33,-0.01,0.13,0.00,25.30,29.04,31.70,14.28,46.77,1012.71,2031.99,3402.24,3070.24,3476.98,599.63,588.75,17.73,0000 0000 0000 0000 000000
2016-08-10 08:07:34,-0.01,0.13,0.00,25.30,29.03,31.69,14.34,46.83,1012.71,2031.99,3402.31,3070.52,3476.98,600.20,589.37,17.78,0000 0000 0000 0000 000000
2016-08-10 08:12:35,0.00,0.13,0.00,25.31,29.02,31.69,14.31,46.79,1012.71,2031.99,3402.20,3070.54,3476.98,600.15,589.29,17.83,0000 0000 0000 0000 000000
2016-08-10 08:17:36,-0.01,0.12,0.00,25.30,29.02,31.70,14.27,46.78,1012.71,2031.99,3402.38,3070.69,3476.99,599.59,588.72,17.88,0000 0000 0000 0000 000000
2016-08-10 08:22:38,-0.00,0.12,0.00,25.29,29.02,31.70,14.22,46.71,1012.71,2031.99,3402.41,3070.87,3476.99,600.21,589.43,17.93,0000 0000 0000 0000 000000
2016-08-10 08:27:39,0.01,0.12,0.00,25.28,29.01,31.68,14.32,46.76,1012.71,2031.99,3402.21,3070.82,3476.99,600.49,589.56,17.98,0000 0000 0000 0000 000000
2016-08-10 08:32:40,-0.00,0.12,0.00,25.28,29.00,31.68,14.30,46.86,1012.71,2031.99,3402.15,3070.77,3476.99,600.08,589.34,18.03,0000 0000 0000 0000 000000
2016-08-10 08:37:41,0.00,0.12,0.00,25.27,29.00,31.68,14.29,46.77,1012.71,2031.99,3402.06,3070.74,3476.98,600.15,589.41,18.08,0000 0000 0000 0000 000000
2016-08-10 08:42:43,0.01,0.13,0.00,25.27,29.00,31.67,14.23,46.62,1012.71,2031.99,3402.01,3070.64,3476.97,600.13,589.39,18.13,0000 0000 0000 0000 000000
2016-08-10 08:47:44,-0.01,0.12,0.00,25.26,29.00,31.67,14.36,46.82,1012.71,2031.99,3402.03,3070.80,3476.98,600.21,589.51,18.18,0000 0000 0000 0000 000000
2016-08-10 08:52:45,-0.00,0.12,0.00,25.25,28.99,31.68,14.28,46.81,1012.71,2032.02,3402.08,3070.94,3476.99,599.91,589.16,18.23,0000 0000 0000 0000 000000
2016-08-10 08:57:47,0.00,0.12,0.00,25.25,28.98,31.67,14.24,46.74,1012.71,2032.02,3402.08,3070.97,3476.99,599.95,589.32,18.28,0000 0000 0000 0000 000000
2016-08-10 09:02:48,0.00,0.12,0.00,25.25,28.97,31.67,14.25,46.73,1012.71,2032.04,3402.05,3070.97,3476.99,599.69,588.92,18.34,0000 0000 0000 0000 000000
2016-08-10 09:07:49,-0.00,0.12,0.00,25.25,28.97,31.67,14.30,46.79,1012.71,2032.02,3402.05,3070.99,3476.99,599.65,588.94,18.39,0000 0000 0000 0000 000000
2016-08-10 09:12:50,0.00,0.12,0.00,25.23,28.97,31.66,14.28,46.48,1012.71,2032.06,3402.05,3070.98,3476.99,600.07,589.26,18.44,0000 0000 0000 0000 000000
2016-08-10 09:17:51,-0.00,0.12,0.00,25.22,28.97,31.65,14.43,46.79,1012.73,2032.08,3402.06,3070.98,3477.00,600.96,590.34,18.49,0000 0000 0000 0000 000000
2016-08-10 09:22:53,0.01,0.13,0.00,25.22,28.97,31.66,14.33,46.73,1012.76,2032.14,3402.04,3070.98,3477.00,599.88,589.37,18.54,0000 0000 0000 0000 000000
2016-08-10 09:27:54,0.02,0.13,0.00,25.20,28.97,31.65,14.38,46.70,1012.95,2032.35,3402.14,3070.99,3477.01,600.19,589.64,18.59,0000 0000 0000 0000 000000
2016-08-10 09:32:55,-0.02,0.13,0.00,25.20,28.97,31.64,14.39,46.74,1013.13,2032.27,3402.02,3070.99,3477.00,600.42,590.05,18.64,0000 0000 0000 0000 000000
2016-08-10 09:37:56,0.02,0.13,0.00,25.20,28.97,31.65,14.32,46.67,1013.20,2032.36,3402.01,3070.99,3477.00,599.78,589.52,18.69,0000 0000 0000 0000 000000
2016-08-10 09:42:58,0.01,0.13,0.00,25.18,28.96,31.64,14.36,46.56,1013.20,2032.38,3402.00,3070.97,3477.00,599.83,589.61,18.74,0000 0000 0000 0000 000000
2016-08-10 09:47:59,-0.01,0.13,0.00,25.17,28.96,31.64,14.36,46.64,1013.21,2032.46,3402.00,3070.97,3477.00,600.38,590.02,18.79,0000 0000 0000 0000 000000
2016-08-10 09:53:01,0.02,0.13,0.00,25.17,28.96,31.64,14.31,46.71,1013.21,2032.51,3402.00,3070.96,3477.00,599.90,589.64,18.84,0000 0000 0000 0000 000000
2016-08-10 09:58:02,-0.01,0.13,0.00,25.16,28.95,31.65,14.35,46.92,1013.21,2032.65,3402.00,3070.97,3477.00,600.02,589.83,18.89,0000 0000 0000 0000 000000
2016-08-10 10:03:03,0.01,0.13,0.00,25.15,28.95,31.63,14.35,46.81,1013.24,2032.68,3402.00,3070.98,3477.00,600.10,589.86,18.94,0000 0000 0000 0000 000000
2016-08-10 10:08:04,-0.00,0.13,0.00,25.15,28.95,31.63,14.37,46.86,1013.30,2032.78,3402.00,3070.97,3477.00,600.50,590.29,18.99,0000 0000 0000 0000 000000
2016-08-10 10:13:06,0.01,0.13,0.00,25.13,28.95,31.63,14.46,46.87,1013.53,2032.78,3401.99,3070.98,3476.99,600.32,590.31,19.04,0000 0000 0000 0000 000000
2016-08-10 10:18:07,-0.01,0.13,0.00,25.12,28.95,31.62,14.34,46.58,1013.68,2032.71,3401.99,3070.97,3476.98,600.36,590.43,19.09,0000 0000 0000 0000 000000
2016-08-10 10:23:08,0.00,0.13,0.00,25.12,28.95,31.62,14.40,46.66,1013.69,2032.72,3401.99,3070.97,3476.99,600.08,590.04,19.14,0000 0000 0000 0000 000000
2016-08-10 10:28:10,0.01,0.13,0.00,25.11,28.95,31.61,14.29,46.70,1013.69,2032.83,3401.99,3070.97,3476.99,599.53,589.67,19.19,0000 0000 0000 0000 000000
2016-08-10 10:33:11,0.01,0.13,0.00,25.10,28.95,31.62,14.32,46.65,1013.69,2032.93,3401.99,3070.98,3476.99,599.95,590.00,19.24,0000 0000 0000 0000 000000
2016-08-10 10:38:12,0.00,0.13,0.00,25.08,28.95,31.63,14.34,46.69,1013.70,2032.94,3401.99,3070.98,3476.99,599.86,590.00,19.29,0000 0000 0000 0000 000000
2016-08-10 10:43:13,-0.00,0.13,0.00,25.07,28.95,31.63,14.33,46.71,1013.73,2032.93,3401.99,3070.99,3476.99,599.65,589.86,19.34,0000 0000 0000 0000 000000
2016-08-10 10:48:14,0.00,0.13,0.00,25.07,28.94,31.61,14.41,46.85,1013.73,2032.95,3401.99,3070.99,3476.99,600.35,590.55,19.39,0000 0000 0000 0000 000000
2016-08-10 10:53:16,0.00,0.13,0.00,25.08,28.93,31.61,14.33,46.62,1014.00,2032.97,3401.98,3070.99,3476.99,599.92,590.26,19.44,0000 0000 0000 0000 000000
2016-08-10 10:58:17,-0.00,0.13,0.00,25.07,28.93,31.60,14.36,46.77,1014.14,2032.96,3401.98,3070.99,3476.99,600.18,590.57,19.49,0000 0000 0000 0000 000000
2016-08-10 11:03:18,0.00,0.13,0.00,25.05,28.92,31.60,14.30,46.82,1014.16,2032.96,3401.94,3070.98,3476.98,599.97,590.43,19.54,0000 0000 0000 0000 000000
2016-08-10 11:08:20,0.00,0.13,0.00,25.05,28.92,31.62,14.43,46.87,1014.17,2032.93,3401.96,3070.97,3476.98,600.62,591.11,19.59,0000 0000 0000 0000 000000
2016-08-10 11:13:21,0.00,0.13,0.00,25.03,28.92,31.60,14.33,46.79,1014.17,2032.95,3401.93,3070.99,3476.99,600.19,590.60,19.64,0000 0000 0000 0000 000000
2016-08-10 11:18:22,-0.00,0.13,0.00,25.02,28.92,31.59,14.28,46.54,1014.19,2032.95,3401.87,3070.97,3476.99,599.82,590.24,19.69,0000 0000 0000 0000 000000
2016-08-10 11:23:24,0.01,0.13,0.00,25.02,28.92,31.58,14.41,46.85,1014.19,2032.93,3401.65,3070.95,3476.95,600.42,590.89,19.74,0000 0000 0000 0000 000000
2016-08-10 11:28:25,-0.00,0.13,0.00,25.02,28.92,31.57,14.34,46.70,1014.25,2032.93,3401.66,3070.95,3476.97,599.73,590.43,19.79,0000 0000 0000 0000 000000
2016-08-10 11:33:26,-0.00,0.13,0.00,25.02,28.92,31.58,14.37,46.75,1014.48,2032.91,3401.82,3070.97,3476.98,599.89,590.61,19.84,0000 0000 0000 0000 000000
2016-08-10 11:38:27,0.00,0.13,0.00,25.00,28.91,31.57,14.34,46.73,1014.64,2032.94,3401.85,3070.97,3476.97,599.98,591.05,19.89,0000 0000 0000 0000 000000
2016-08-10 11:43:28,-0.00,0.13,0.00,24.98,28.90,31.56,14.38,46.83,1014.63,2032.96,3401.79,3070.98,3476.97,599.71,590.70,19.94,0000 0000 0000 0000 000000
2016-08-10 11:48:29,-0.00,0.13,0.00,24.97,28.90,31.56,14.34,46.90,1014.65,2032.94,3401.46,3070.96,3476.97,600.04,590.93,19.99,0000 0000 0000 0000 000000
2016-08-10 11:53:30,0.00,0.13,0.00,24.97,28.90,31.55,14.36,46.74,1014.66,2032.95,3401.36,3070.98,3476.95,600.11,591.05,20.04,0000 0000 0000 0000 000000
2016-08-10 11:58:32,0.00,0.13,0.00,24.97,28.90,31.56,14.29,46.87,1014.66,2032.95,3401.14,3070.97,3476.96,599.53,590.59,20.09,0000 0000 0000 0000 000000
2016-08-10 12:03:33,0.00,0.13,0.00,24.96,28.90,31.56,14.35,46.80,1014.67,2032.97,3401.26,3070.99,3476.96,600.07,591.19,20.14,0000 0000 0000 0000 000000
2016-08-10 12:08:34,0.00,0.13,0.00,24.95,28.90,31.55,14.44,46.94,1014.69,2032.98,3401.13,3070.98,3476.93,599.56,590.65,20.19,0000 0000 0000 0000 000000
2016-08-10 12:13:36,-0.00,0.13,0.00,24.94,28.88,31.54,14.39,46.98,1014.71,2032.97,3401.09,3070.98,3476.97,600.09,591.26,20.24,0000 0000 0000 0000 000000
2016-08-10 12:18:37,0.00,0.13,0.00,24.94,28.87,31.55,14.44,46.78,1014.86,2032.98,3401.02,3070.99,3476.92,600.07,591.14,20.29,0000 0000 0000 0000 000000
2016-08-10 12:23:38,0.00,0.13,0.00,24.92,28.87,31.54,14.35,46.83,1014.99,2032.96,3401.03,3070.98,3476.91,599.83,591.15,20.34,0000 0000 0000 0000 000000
2016-08-10 12:28:39,-0.00,0.13,0.00,24.92,28.87,31.53,14.38,46.83,1015.03,2032.96,3401.04,3070.98,3476.92,600.40,591.60,20.39,0000 0000 0000 0000 000000
2016-08-10 12:33:40,-0.00,0.13,0.00,24.92,28.87,31.53,14.35,46.86,1015.08,2032.95,3401.03,3070.97,3476.86,599.57,590.92,20.44,0000 0000 0000 0000 000000
2016-08-10 12:38:42,0.00,0.13,0.00,24.90,28.87,31.54,14.38,46.78,1015.14,2032.94,3401.02,3070.97,3476.64,600.07,591.67,20.49,0000 0000 0000 0000 000000
2016-08-10 12:43:43,0.00,0.13,0.00,24.90,28.85,31.52,14.42,46.95,1015.10,2032.95,3401.01,3070.98,3476.70,600.29,591.63,20.54,0000 0000 0000 0000 000000
2016-08-10 12:48:44,0.00,0.13,0.00,24.89,28.85,31.51,14.39,46.87,1015.09,2032.93,3401.01,3070.98,3476.69,599.72,591.07,20.59,0000 0000 0000 0000 000000
2016-08-10 12:53:45,-0.00,0.13,0.00,24.87,28.85,31.50,14.39,46.88,1015.12,2032.97,3401.02,3070.99,3476.87,600.14,591.54,20.64,0000 0000 0000 0000 000000